Retour au catalogue

DELTA 1 DEB

ActifUNKNOWN
NORAD 12580·DEBRIS·🇺🇸 United States

Lancé Jul 29, 1976 depuis Vandenberg Space Force Base

Loading…

Prochains Passages (prochaines 24 heures)

TLE

FraisSource: Space-Track

Époque: Sep 14, 2026, 15:01 UTC

1 12580U 76077DY  26257.62623733 -.00000187  00000-0 -29496-2 0  9997
2 12580 102.4287 302.5467 0617782  53.1302  95.8835 11.28338194995061

Suivez DELTA 1 DEB en temps réel avec AllMySat

Download on the App Store